Weather History for KSDY - May, 2013

Change the Weather History Date:

Friday, May 10, 2013

  Actual Average Record
Temperature  
Mean Temperature 50 °F -  
Max Temperature 62 °F 66 °F 93 °F (1977)
Min Temperature 37 °F 40 °F 24 °F (1952)
Degree Days  
Heating Degree Days 16    
Moisture  
Dew Point 27 °F    
Average Humidity 43    
Maximum Humidity 75    
Minimum Humidity 22    
Precipitation  
Precipitation 0.00 in - - ()
Sea Level Pressure  
Sea Level Pressure 30.22 in    
Wind  
Wind Speed 10 mph (NW)    
Max Wind Speed 28 mph    
Max Gust Speed 33 mph    
Visibility 8 miles    
Events      
Averages and records for this station are not official NWS values.
T = Trace of Precipitation, MM = Missing Value Source: NWS Daily Summary

Daily Weather History Graph

Daily Weather History Graph

Search for Another Location

Airport or City:

Trip Planner

Search our weather history database for the weather conditions in past years. The results will help you decide how hot, cold, wet, or windy it might be!

Date:

Astronomy

May. 10, 2013 Rise Set
Actual Time 5:25 AM MDT 8:21 PM MDT
Civil Twilight 4:49 AM MDT 8:58 PM MDT
Nautical Twilight 4:03 AM MDT 9:44 PM MDT
Astronomical Twilight 3:07 AM MDT 10:40 PM MDT
Moon 5:50 AM MDT (5/10) 9:15 PM MDT (5/10)
Length of Visible Light 16h 08m
Length of Day
14h 56m
New Moon, 1% of the Moon is Illuminated
May 10
New Moon
May 17
First Quarter
May 24
Full
May 31
Last Quarter
Jun 8
New

Hourly Weather History & Observations

Time (MDT) Temp. Windchill Dew Point Humidity Pressure Visibility Wind Dir Wind Speed Gust Speed Precip Events Conditions
12:15 AM 48.2 °F - 26.6 °F 43% 30.17 in 10.0 mi SW 4.6 mph - N/A   Clear
12:35 AM 44.6 °F 42.2 °F 26.6 °F 49% 30.16 in 10.0 mi SSW 4.6 mph - N/A   Clear
12:55 AM 46.4 °F 43.5 °F 26.6 °F 46% 30.15 in 10.0 mi SSW 5.8 mph - N/A   Clear
1:15 AM 46.4 °F - 24.8 °F 43% 30.15 in 10.0 mi Calm Calm - N/A   Clear
1:35 AM 44.6 °F - 26.6 °F 49% 30.15 in 10.0 mi Calm Calm - N/A   Clear
1:55 AM 42.8 °F - 24.8 °F 49% 30.14 in 10.0 mi Calm Calm - N/A   Clear
2:15 AM 42.8 °F 40.1 °F 26.6 °F 53% 30.12 in 10.0 mi South 4.6 mph - N/A   Clear
2:35 AM 41.0 °F 39.0 °F 26.6 °F 57% 30.13 in 10.0 mi SSW 3.5 mph - N/A   Clear
2:55 AM 39.2 °F - 24.8 °F 56% 30.13 in 10.0 mi Calm Calm - N/A   Clear
3:15 AM 39.2 °F 35.9 °F 26.6 °F 61% 30.12 in 10.0 mi South 4.6 mph - N/A   Clear
3:35 AM 39.2 °F 35.9 °F 26.6 °F 61% 30.12 in 10.0 mi South 4.6 mph - N/A   Clear
4:15 AM 37.4 °F 31.4 °F 28.4 °F 70% 30.10 in 10.0 mi South 8.1 mph - N/A   Clear
4:35 AM 37.4 °F 31.4 °F 28.4 °F 70% 30.09 in 10.0 mi SSW 8.1 mph - N/A   Clear
4:55 AM 39.2 °F 34.2 °F 28.4 °F 65% 30.09 in 10.0 mi SSW 6.9 mph - N/A   Clear
5:15 AM 41.0 °F - 28.4 °F 61% 30.09 in 10.0 mi Calm Calm - N/A   Clear
5:35 AM 39.2 °F - 28.4 °F 65% 30.08 in 10.0 mi Calm Calm - N/A   Clear
6:15 AM 39.2 °F 33.6 °F 32.0 °F 75% 30.07 in 10.0 mi South 8.1 mph - N/A   Clear
6:35 AM 42.8 °F 38.0 °F 33.8 °F 70% 30.08 in 10.0 mi South 8.1 mph - N/A   Scattered Clouds
7:35 AM 48.2 °F - 35.6 °F 62% 30.09 in 9.0 mi South 5.8 mph - N/A   Scattered Clouds
7:55 AM 48.2 °F - 37.4 °F 66% 30.10 in 5.0 mi SSE 5.8 mph - N/A   Mostly Cloudy
8:15 AM 51.8 °F - 37.4 °F 58% 30.10 in 7.0 mi South 5.8 mph - N/A   Partly Cloudy
8:35 AM 55.4 °F - 41.0 °F 58% 30.12 in 3.0 mi NW 11.5 mph 18.4 mph N/A   Scattered Clouds
8:55 AM 60.8 °F - 42.8 °F 52% 30.12 in 6.0 mi NW 18.4 mph 23.0 mph N/A   Scattered Clouds
9:35 AM 60.8 °F - 37.4 °F 42% 30.13 in 3.0 mi NNW 19.6 mph - N/A   Partly Cloudy
10:15 AM 59.0 °F - 37.4 °F 45% 30.15 in 7.0 mi NNW 24.2 mph 28.8 mph N/A   Mostly Cloudy
10:35 AM 60.8 °F - 39.2 °F 45% 30.17 in 2.0 mi NNW 25.3 mph 33.4 mph N/A   Overcast
11:15 AM 57.2 °F - 37.4 °F 48% 30.21 in 10.0 mi NNW 20.7 mph 29.9 mph N/A   Scattered Clouds
11:35 AM 57.2 °F - 35.6 °F 44% 30.22 in 5.0 mi North 23.0 mph 31.1 mph N/A   Mostly Cloudy
11:55 AM 57.2 °F - 35.6 °F 44% 30.23 in 3.0 mi NNW 20.7 mph 26.5 mph N/A   Mostly Cloudy
12:15 PM 57.2 °F - 33.8 °F 41% 30.23 in 7.0 mi North 25.3 mph 29.9 mph N/A   Mostly Cloudy
12:35 PM 57.2 °F - 32.0 °F 38% 30.23 in 7.0 mi NNW 27.6 mph 33.4 mph N/A   Mostly Cloudy
12:55 PM 57.2 °F - 30.2 °F 36% 30.23 in 10.0 mi NNW 20.7 mph 26.5 mph N/A   Mostly Cloudy
1:15 PM 60.8 °F - 30.2 °F 31% 30.24 in 4.0 mi NNW 24.2 mph 29.9 mph N/A   Mostly Cloudy
1:35 PM 59.0 °F - 24.8 °F 27% 30.25 in 3.0 mi North 20.7 mph 26.5 mph N/A   Mostly Cloudy
1:55 PM 60.8 °F - 26.6 °F 27% 30.25 in 4.0 mi North 20.7 mph 26.5 mph N/A   Mostly Cloudy
2:15 PM 60.8 °F - 24.8 °F 25% 30.25 in 5.0 mi NNW 23.0 mph 28.8 mph N/A   Partly Cloudy
2:35 PM 62.6 °F - 24.8 °F 24% 30.26 in 2.5 mi North 23.0 mph 29.9 mph N/A   Clear
2:55 PM - - - N/A% 30.26 in 5.0 mi North 20.7 mph 28.8 mph N/A   Clear
3:15 PM - - - N/A% 30.26 in 8.0 mi North 23.0 mph 28.8 mph N/A   Clear
3:35 PM 62.6 °F - 24.8 °F 24% 30.26 in 10.0 mi NNW 23.0 mph 29.9 mph N/A   Clear
4:15 PM 62.6 °F - 24.8 °F 24% 30.27 in 3.0 mi North 17.3 mph 27.6 mph N/A   Clear
4:35 PM 62.6 °F - 24.8 °F 24% 30.27 in 5.0 mi NNW 16.1 mph 27.6 mph N/A   Clear
4:55 PM 62.6 °F - 23.0 °F 22% 30.28 in 4.0 mi NNW 19.6 mph 26.5 mph N/A   Clear
5:15 PM 60.8 °F - 23.0 °F 23% 30.28 in 3.0 mi NNW 17.3 mph 27.6 mph N/A   Clear
5:35 PM 60.8 °F - 21.2 °F 22% 30.28 in 10.0 mi North 18.4 mph 27.6 mph N/A   Clear
5:55 PM 60.8 °F - 21.2 °F 22% 30.29 in 10.0 mi NNW 19.6 mph 26.5 mph N/A   Clear
6:15 PM 60.8 °F - 21.2 °F 22% 30.29 in 10.0 mi North 19.6 mph 27.6 mph N/A   Clear
6:35 PM 59.0 °F - 21.2 °F 23% 30.29 in 10.0 mi North 20.7 mph 24.2 mph N/A   Clear
6:55 PM 57.2 °F - 21.2 °F 25% 30.29 in 10.0 mi North 16.1 mph - N/A   Clear
7:15 PM 57.2 °F - 21.2 °F 25% 30.30 in 5.0 mi North 16.1 mph 19.6 mph N/A   Clear
7:35 PM 57.2 °F - 21.2 °F 25% 30.31 in 3.0 mi North 10.4 mph - N/A   Clear
7:55 PM 55.4 °F - 21.2 °F 26% 30.32 in 8.0 mi North 10.4 mph 16.1 mph N/A   Clear
8:15 PM 53.6 °F - 21.2 °F 28% 30.32 in 7.0 mi North 9.2 mph - N/A   Clear
8:55 PM 46.4 °F 41.9 °F 23.0 °F 40% 30.34 in 10.0 mi NNW 9.2 mph - N/A   Clear
9:15 PM 46.4 °F 42.4 °F 21.2 °F 37% 30.34 in 10.0 mi NW 8.1 mph - N/A   Clear
9:35 PM 44.6 °F 40.2 °F 19.4 °F 37% 30.35 in 10.0 mi NW 8.1 mph - N/A   Clear
9:55 PM 44.6 °F 40.2 °F 19.4 °F 37% 30.35 in 10.0 mi NW 8.1 mph - N/A   Clear
10:15 PM 42.8 °F 38.6 °F 19.4 °F 39% 30.36 in 10.0 mi WNW 6.9 mph - N/A   Clear
10:35 PM 41.0 °F 35.2 °F 19.4 °F 42% 30.36 in 10.0 mi WNW 9.2 mph - N/A   Clear
10:55 PM 41.0 °F 34.7 °F 21.2 °F 45% 30.37 in 10.0 mi NW 10.4 mph - N/A   Clear
11:15 PM 44.6 °F 38.4 °F 21.2 °F 39% 30.38 in 10.0 mi NNW 12.7 mph - N/A   Clear
11:35 PM 42.8 °F 37.0 °F 21.2 °F 42% 30.39 in 10.0 mi NNW 10.4 mph - N/A   Clear
11:55 PM 42.8 °F 38.6 °F 24.8 °F 49% 30.40 in 10.0 mi North 6.9 mph - N/A   Clear